Location: Champs
(48.8539°N, 2.6040°E)
Time: 06:04:30
(UTC+00:00)

Cosmos 1953 - Pass Details

Date: 29 May 2022
Orbit: 533 x 555 km, 82.5° (Epoch: 03 July)

Event Time Altitude Azimuth Distance (km) Brightness Sun altitude
Rises 01:02:33 0° 337° (NNW) 2,726 6.7 -17.6°
Reaches altitude 10° 01:05:07 10° 321° (NW) 1,822 5.4 -17.4°
Maximum altitude 01:08:06 21° 273° (W) 1,272 4.0 -17.3°
Enters shadow 01:08:51 20° 257° (WSW) 1,310 3.9 -17.2°
